Location: Antioch Baptist Church
(32.7160°N, 96.7483°W)
Time: 18:22:06
(UTC+00:00)

Cosmos 1515 - Pass Details

Date: 05 December 2023
Orbit: 463 x 471 km, 82.5° (Epoch: 21 February)

Event Time Altitude Azimuth Distance (km) Brightness Sun altitude
Rises 11:22:45 0° 16° (NNE) 2,547 7.3 -22.9°
Reaches altitude 10° 11:25:36 10° 41° (NE) 1,665 6.6 -22.4°
Drops below altitude 10° 11:29:51 10° 112° (ESE) 1,660 7.4 -21.5°
Enters shadow 12:32:59 -55° 353° (N) 11,015 10.3 -8.8°
Maximum altitude 13:02:30 22° 270° (W) 1,090 4.8 -3.1°
